This is the latest recevied weather packets stored in our database for station/object DL6DJ-15. If no packets are shown the sender has not sent any weather packets the latest 10 day(s).
| Time | Temp. | Humidity | Pressure | Rain* | Wind** | Luminosity | Snow |
|---|---|---|---|---|---|---|---|
| 1778001099 | 15.56° C | 70% | 1007.3 hPa | - | - | - | - |
| 1778000799 | 16.11° C | 69% | 1007.1 hPa | - | - | - | - |
| 1778000498 | 15.56° C | 71% | 1006.7 hPa | - | - | - | - |
| 1778000198 | 15.56° C | 73% | 1006.8 hPa | - | - | - | - |
| 1777999898 | 15.56° C | 71% | 1006.7 hPa | - | - | - | - |
| 1777999598 | 15.56° C | 71% | 1006.8 hPa | - | - | - | - |
| 1777999297 | 15.56° C | 71% | 1006.9 hPa | - | - | - | - |
| 1777998996 | 15.56° C | 70% | 1006.8 hPa | - | - | - | - |
| 1777998696 | 15.56° C | 68% | 1006.9 hPa | - | - | - | - |
| 1777998396 | 16.11° C | 68% | 1007 hPa | - | - | - | - |
| 1777998095 | 16.11° C | 67% | 1006.9 hPa | - | - | - | - |
| 1777997796 | 16.11° C | 67% | 1007.1 hPa | - | - | - | - |
| 1777997495 | 16.11° C | 65% | 1007 hPa | - | - | - | - |
| 1777997194 | 16.67° C | 66% | 1006.9 hPa | - | - | - | - |
| 1777996894 | 16.67° C | 68% | 1006.9 hPa | - | - | - | - |
| 1777996594 | 16.11° C | 68% | 1007 hPa | - | - | - | - |
| 1777996293 | 16.67° C | 66% | 1006.9 hPa | - | - | - | - |
| 1777995993 | 16.67° C | 66% | 1006.9 hPa | - | - | - | - |
| 1777995693 | 16.67° C | 65% | 1006.8 hPa | - | - | - | - |
| 1777995392 | 17.22° C | 63% | 1006.8 hPa | - | - | - | - |
| 1777995092 | 18.33° C | 55% | 1006.5 hPa | - | - | - | - |
| 1777994792 | 21.11° C | 53% | 1006.3 hPa | - | - | - | - |
| 1777994491 | 22.78° C | 51% | 1006.1 hPa | - | - | - | - |
| 1777994191 | 23.33° C | 39% | 1006 hPa | - | - | - | - |
| 1777993891 | 23.89° C | 35% | 1005.8 hPa | - | - | - | - |
* Rain since midnight (hover to see other rain measurements)
** Current wind speed in m/s (hover to see current wind gust speed)